Weather in Almazna

Ukraine / Luhansk Region     48°31′18″N   38°34′47″E
temp.,
°C
wind,
m/s
gust,
m/s
humid.,
%
clouds,
%
prec.,
mm/h
press.,
hPa
HPBL,
m
7 may, fri
fri700:00+12ssw327293 0.0 101126
03:00+10wsw348163 0.0 101166
06:00+10wnw3789100 0.0 1012231
09:00+12nw5681100 0.0 1014694
12:00+15nw45588 0.1 10151311
15:00+18nw454071 0.1 10152181
18:00+17nw22415 0.0 10151780
21:00+12e33547 0.0 101624
8 may, sat
sat800:00+11se4866100 0.0 1016142
03:00+11sse3973100 0.0 1015185
06:00+11s51181100 0.0 1014369
09:00+14s61270100 0.0 1013597
12:00+17s7961100 0.3 1012939
15:00+19ssw81055100 0.3 10101474
18:00+17wsw3671100 0.1 1010455
21:00+13wnw3693100 0.4 1011379
9 may, sun
sun900:00+9nw61191100 0.1 1012538
03:00+7nw71092100 1.6 1013693
06:00+6nnw61093100 3.8 1014754
09:00+8nnw81077100 4.6 10161101
12:00+10nnw91159100 0.1 10161542
15:00+12nnw8115272 0.1 10171950
18:00+11n7106117 0.1 10191473
21:00+6nw411745 0.1 1022243
10 may, mon
mon1000:00+5nw49845 0.0 1022208
03:00+5wnw5128290 0.0 1022357
06:00+5nw61479100 0.0 1022491
09:00+8nnw81364100 0.0 10201239
12:00+8nnw91377100 1.0 10191292
15:00+6nnw81393100 6.5 10171068
18:00+6nw61397100 3.8 1015757
21:00+10nne81297100 5.3 1013728
11 may, tue
tue1100:00+7ne4898100 0.2 1015429
03:00+6ne3597100 0.8 1015315
06:00+6e2497100 1.2 1015265
09:00+7ene5887100 4.4 1016716
12:00+8e91289100 0.4 10181055
15:00+6e91491100 0.5 1019906
18:00+7e6119076 0.4 1021715
21:00+6ene5139580 1.1 1022375